When you browse on this site, cookies collect data to enhance your experience and personalize the content and advertising you see.
Visit our Privacy Policy to learn more. By continuing to use the site, you agree to this use of cookies and data.
  • In Hungary
  • List of Countries
  • For 7 days
  • Water Temperature
  • Satellite Maps
  • Weather Map
  • News
  • Weather Widgets
  • user-avatar
    Login

    Hourly Weather Agra

    Today, 20 July, Saturday

    Time Temperature Precipitation Wind Pressure Humidity
    00:00 +36°C° 0 mm 1 mps 735 mmHg 49%
    01:00 +36°C° 0 mm 1 mps 735 mmHg 50%
    02:00 +35°C° 0 mm 1 mps 735 mmHg 52%
    03:00 +35°C° 0 mm 1 mps 735 mmHg 53%
    04:00 +35°C° 0 mm 1 mps 735 mmHg 54%
    05:00 +34°C° 0 mm 1 mps 736 mmHg 58%
    06:00 +35°C° 0 mm 1 mps 736 mmHg 55%
    07:00 +37°C° 0 mm 2 mps 736 mmHg 52%
    08:00 +38°C° 0 mm 2 mps 737 mmHg 48%
    09:00 +38°C° 0 mm 2 mps 737 mmHg 45%
    10:00 +39°C° 0 mm 2 mps 736 mmHg 42%
    11:00 +40°C° 0 mm 3 mps 737 mmHg 37%
    12:00 +41°C° 0 mm 2 mps 736 mmHg 35%
    13:00 +41°C° 0 mm 2 mps 736 mmHg 33%
    14:00 +42°C° 0 mm 2 mps 735 mmHg 32%
    15:00 +42°C° 0 mm 1 mps 735 mmHg 32%
    16:00 +41°C° 0 mm 1 mps 734 mmHg 32%
    17:00 +41°C° 0 mm 1 mps 734 mmHg 33%
    18:00 +41°C° 0 mm 1 mps 734 mmHg 34%
    19:00 +40°C° 0 mm 1 mps 735 mmHg 36%
    20:00 +40°C° 0 mm 1 mps 735 mmHg 37%
    21:00 +39°C° 0 mm 1 mps 735 mmHg 38%
    22:00 +39°C° 0 mm 1 mps 735 mmHg 39%
    23:00 +39°C° 0 mm 1 mps 735 mmHg 40%

    Tomorrow, 21 July, Sunday

    Time Temperature Precipitation Wind Pressure Humidity
    00:00 +38°C° 0 mm 2 mps 735 mmHg 41%
    01:00 +38°C° 0 mm 2 mps 735 mmHg 42%
    02:00 +38°C° 0 mm 2 mps 735 mmHg 42%
    03:00 +37°C° 0 mm 2 mps 735 mmHg 44%
    04:00 +37°C° 0 mm 2 mps 735 mmHg 45%
    05:00 +35°C° 0 mm 1 mps 735 mmHg 46%
    06:00 +37°C° 0 mm 2 mps 735 mmHg 43%
    07:00 +38°C° 0 mm 2 mps 736 mmHg 40%
    08:00 +39°C° 0 mm 3 mps 736 mmHg 37%
    09:00 +40°C° 0 mm 2 mps 736 mmHg 34%
    10:00 +42°C° 0 mm 2 mps 736 mmHg 32%
    11:00 +43°C° 0 mm 2 mps 736 mmHg 29%
    12:00 +43°C° 0 mm 1 mps 735 mmHg 29%
    13:00 +43°C° 0 mm 1 mps 735 mmHg 28%
    14:00 +40°C° 0 mm 0 mps 734 mmHg 27%
    15:00 +43°C° 0 mm 1 mps 734 mmHg 27%
    16:00 +43°C° 0 mm 1 mps 733 mmHg 27%
    17:00 +44°C° 0 mm 1 mps 733 mmHg 26%
    18:00 +43°C° 0 mm 1 mps 733 mmHg 28%
    19:00 +42°C° 0 mm 2 mps 734 mmHg 30%
    20:00 +41°C° 0 mm 2 mps 734 mmHg 32%
    21:00 +41°C° 0 mm 2 mps 734 mmHg 33%
    22:00 +41°C° 0 mm 2 mps 734 mmHg 34%
    23:00 +40°C° 0 mm 2 mps 734 mmHg 34%

    Day after tomorrow, 22 July, Monday

    Time Temperature Precipitation Wind Pressure Humidity
    00:00 +40°C° 0 mm 2 mps 734 mmHg 35%
    01:00 +40°C° 0 mm 2 mps 733 mmHg 36%
    02:00 +39°C° 0 mm 2 mps 733 mmHg 37%
    03:00 +39°C° 0 mm 2 mps 733 mmHg 38%
    04:00 +39°C° 0 mm 2 mps 733 mmHg 39%
    05:00 +39°C° 0 mm 2 mps 733 mmHg 39%
    06:00 +39°C° 0 mm 2 mps 734 mmHg 38%
    07:00 +40°C° 0 mm 2 mps 734 mmHg 37%
    08:00 +40°C° 0 mm 2 mps 735 mmHg 36%
    09:00 +41°C° 0 mm 2 mps 734 mmHg 33%
    10:00 +43°C° 0 mm 2 mps 734 mmHg 30%
    11:00 +45°C° 0 mm 2 mps 734 mmHg 27%
    12:00 +45°C° 0 mm 3 mps 734 mmHg 27%
    13:00 +45°C° 0 mm 3 mps 733 mmHg 26%
    14:00 +45°C° 0 mm 4 mps 733 mmHg 26%
    15:00 +45°C° 0 mm 3 mps 732 mmHg 27%
    16:00 +45°C° 0 mm 2 mps 732 mmHg 27%
    17:00 +45°C° 0 mm 2 mps 731 mmHg 27%
    18:00 +43°C° 0 mm 1 mps 732 mmHg 29%
    19:00 +42°C° 0 mm 1 mps 732 mmHg 30%
    20:00 +42°C° 0 mm 1 mps 733 mmHg 31%
    21:00 +41°C° 0.1 mm 1 mps 733 mmHg 33%
    22:00 +41°C° 0.1 mm 1 mps 733 mmHg 34%
    23:00 +40°C° 0.1 mm 1 mps 733 mmHg 35%

    23 July, Tuesday

    Time Temperature Precipitation Wind Pressure Humidity
    00:00 +40°C° 0 mm 1 mps 732 mmHg 36%
    01:00 +40°C° 0 mm 1 mps 732 mmHg 37%
    02:00 +39°C° 0 mm 1 mps 731 mmHg 37%
    03:00 +39°C° 0 mm 1 mps 731 mmHg 38%
    04:00 +39°C° 0 mm 1 mps 731 mmHg 39%
    05:00 +39°C° 0 mm 1 mps 731 mmHg 39%
    06:00 +39°C° 0.1 mm 1 mps 732 mmHg 38%
    07:00 +40°C° 0.1 mm 1 mps 733 mmHg 38%
    08:00 +40°C° 0.1 mm 1 mps 733 mmHg 37%
    09:00 +41°C° 0 mm 1 mps 733 mmHg 34%
    10:00 +43°C° 0 mm 1 mps 733 mmHg 31%
    11:00 +44°C° 0 mm 1 mps 733 mmHg 28%
    12:00 +44°C° 0 mm 1 mps 732 mmHg 28%
    13:00 +45°C° 0 mm 2 mps 732 mmHg 27%
    14:00 +46°C° 0 mm 3 mps 731 mmHg 27%
    15:00 +45°C° 0 mm 3 mps 731 mmHg 27%
    16:00 +45°C° 0 mm 3 mps 731 mmHg 28%
    17:00 +44°C° 0 mm 3 mps 730 mmHg 28%
    18:00 +43°C° 0 mm 2 mps 731 mmHg 30%
    19:00 +42°C° 0 mm 2 mps 731 mmHg 31%
    20:00 +42°C° 0 mm 1 mps 731 mmHg 32%
    21:00 +41°C° 0 mm 1 mps 731 mmHg 34%
    22:00 +41°C° 0 mm 1 mps 731 mmHg 35%
    23:00 +40°C° 0 mm 2 mps 732 mmHg 37%

    24 July, Wednesday

    Time Temperature Precipitation Wind Pressure Humidity
    00:00 +39°C° 0 mm 2 mps 731 mmHg 39%
    01:00 +39°C° 0 mm 2 mps 731 mmHg 42%
    02:00 +38°C° 0 mm 2 mps 731 mmHg 45%
    03:00 +38°C° 0 mm 2 mps 731 mmHg 46%
    04:00 +37°C° 0 mm 3 mps 731 mmHg 47%
    05:00 +37°C° 0 mm 4 mps 732 mmHg 48%
    06:00 +38°C° 0 mm 4 mps 732 mmHg 47%
    07:00 +40°C° 0 mm 4 mps 733 mmHg 45%
    08:00 +40°C° 0 mm 4 mps 733 mmHg 43%
    09:00 +41°C° 0 mm 4 mps 733 mmHg 40%
    10:00 +43°C° 0 mm 3 mps 733 mmHg 37%
    11:00 +43°C° 0 mm 2 mps 733 mmHg 33%
    12:00 +43°C° 0.1 mm 2 mps 732 mmHg 32%
    13:00 +44°C° 0.1 mm 3 mps 732 mmHg 31%
    14:00 +44°C° 0.1 mm 3 mps 731 mmHg 30%
    15:00 +42°C° 0.3 mm 4 mps 731 mmHg 39%
    16:00 +40°C° 0.3 mm 6 mps 731 mmHg 48%
    17:00 +36°C° 0.3 mm 7 mps 731 mmHg 58%
    18:00 +36°C° 0.2 mm 6 mps 731 mmHg 60%
    19:00 +35°C° 0.2 mm 4 mps 732 mmHg 62%
    20:00 +34°C° 0.2 mm 3 mps 732 mmHg 64%
    21:00 +35°C° 0.1 mm 3 mps 732 mmHg 63%
    22:00 +35°C° 0.1 mm 2 mps 733 mmHg 62%
    23:00 +35°C° 0.1 mm 2 mps 733 mmHg 61%

    25 July, Thursday

    Time Temperature Precipitation Wind Pressure Humidity
    00:00 +35°C° 0 mm 2 mps 733 mmHg 62%
    01:00 +34°C° 0 mm 2 mps 733 mmHg 63%
    02:00 +34°C° 0 mm 2 mps 733 mmHg 63%
    03:00 +34°C° 0.3 mm 2 mps 733 mmHg 65%
    04:00 +33°C° 0.3 mm 3 mps 733 mmHg 67%
    05:00 +33°C° 0.3 mm 3 mps 733 mmHg 69%
    06:00 +32°C° 0.3 mm 2 mps 733 mmHg 67%
    07:00 +34°C° 0.3 mm 2 mps 734 mmHg 66%
    08:00 +34°C° 0.3 mm 2 mps 734 mmHg 64%
    09:00 +34°C° 2.7 mm 2 mps 735 mmHg 63%
    10:00 +35°C° 2.7 mm 2 mps 735 mmHg 62%
    11:00 +35°C° 2.7 mm 2 mps 735 mmHg 61%
    12:00 +33°C° 8.7 mm 3 mps 734 mmHg 71%
    13:00 +31°C° 8.7 mm 3 mps 734 mmHg 81%
    14:00 +29°C° 8.7 mm 4 mps 733 mmHg 91%
    15:00 +29°C° 3 mm 4 mps 733 mmHg 87%
    16:00 +29°C° 3 mm 3 mps 733 mmHg 84%
    17:00 +30°C° 3 mm 3 mps 733 mmHg 80%
    18:00 +30°C° 0 mm 3 mps 733 mmHg 79%
    19:00 +30°C° 0 mm 2 mps 733 mmHg 78%
    20:00 +30°C° 0 mm 2 mps 734 mmHg 77%
    21:00 +30°C° 0.1 mm 1 mps 734 mmHg 77%
    22:00 +30°C° 0.1 mm 1 mps 734 mmHg 78%
    23:00 +30°C° 0.1 mm 1 mps 734 mmHg 78%
    Show more